Lid_Strength_Index
1 1 1 1 2 2 2 3 2 3 3 3 2 2 2 3 3 4 4 2 4 7 6 5 5 7 7 6 9 6 7 7 8 10 11 11 11 10 10 9 11 12 13 12 13 14 15 7 8 12 9 7 7 6
2 1 1 1 2 2 2 3 3 3 3 3 2 2 2 3 3 3 4 2 1 4 7 4 4 4 5 4 6 6 7 7 7 10 9 9 10 9 11 13 8 12 10 11 10 11 9 7 8 7 6 7 7 7
2 2 1 1 2 2 2 3 3 3 2 2 2 2 2 3 3 3 5 3 2 4 4 4 5 3 4 4 4 7 5 5 6 5 8 9 11 9 12 12 10 9 7 10 10 10 9 7 6 5 5 6 5 5
2 1 1 1 2 2 2 3 3 3 2 2 2 2 2 2 3 3 5 3 3 4 7 5 1 2 -0 2 4 4 4 4 4 5 7 9 10 7 9 9 10 8 8 10 10 9 8 7 6 6 5 5 5 4
1 1 1 1 2 2 2 2 3 3 3 2 2 2 2 2 2 3 3 2 1 3 7 6 3 2 1 2 3 4 4 4 5 7 8 9 8 8 7 8 10 7 9 11 12 8 8 8 6 4 5 5 5 5
1 1 1 1 2 2 2 2 2 3 3 3 2 2 2 2 2 4 4 0 1 1 5 8 3 2 2 2 3 4 4 4 5 6 7 6 5 7 10 11 8 6 6 6 8 6 6 5 4 4 5 4 4 4
1 1 1 1 2 2 2 2 2 3 3 3 3 2 2 2 3 5 5 3 2 2 5 7 7 3 2 3 4 4 3 4 5 6 7 6 6 6 8 10 7 6 5 5 4 5 6 4 6 4 4 4 4 4
1 1 1 1 1 2 2 2 2 3 3 3 3 2 2 2 3 4 1 1 2 3 4 8 8 6 3 5 6 3 5 5 5 6 6 7 6 7 10 7 6 5 5 5 4 4 5 4 4 4 4 4 5 5
2 1 1 1 1 2 2 2 2 3 3 3 3 2 2 3 3 2 -0 0 1 3 7 7 9 10 4 5 5 5 5 8 5 7 7 6 8 10 8 7 6 5 6 6 4 4 4 5 5 4 4 4 5 5
1 2 1 1 1 1 2 2 2 3 3 3 4 3 5 2 -0 0 2 4 4 4 4 7 5 9 6 6 7 7 6 8 10 8 5 8 9 6 5 5 5 5 4 4 6 6 5 5 5 5 5 4 4 5
-1 -0 0 1 2 2 2 2 2 3 3 4 4 4 1 0 1 4 6 7 6 7 5 5 6 8 4 8 8 7 9 8 11 9 9 10 10 8 5 5 4 4 4 4 4 4 4 4 4 5 5 4 4 4
-1 -1 -0 1 2 2 2 2 3 5 3 4 4 2 1 3 5 8 9 7 7 9 6 6 6 5 5 4 8 7 10 9 12 7 9 12 9 6 5 5 4 4 4 4 3 4 4 4 3 3 4 4 4 4
-1 -1 -1 0 1 2 1 2 3 3 3 2 3 5 5 6 11 10 11 9 9 6 6 6 7 6 5 5 7 8 11 11 7 10 11 10 7 6 5 5 4 3 3 3 3 3 3 3 3 3 3 3 3 3
-1 -1 -1 1 1 2 2 3 3 3 4 5 6 11 9 10 8 8 8 8 6 6 6 6 6 7 6 8 8 10 9 8 11 12 12 9 7 6 5 4 4 4 4 4 4 3 3 3 3 3 3 3 3 3
-1 -1 -0 1 1 1 2 3 3 3 3 6 6 10 8 6 5 5 5 6 4 4 5 6 6 6 8 8 8 9 11 12 12 13 10 7 6 5 5 5 4 4 4 4 4 4 4 3 3 3 3 3 3 3
-1 -0 1 1 1 2 2 3 3 2 2 5 5 7 5 6 7 6 5 6 4 4 4 5 7 8 9 8 10 11 11 13 11 9 6 5 6 5 5 4 4 4 4 4 4 3 3 3 4 3 3 3 3 3
0 3 1 1 1 2 3 4 3 4 4 5 6 4 5 6 6 6 5 6 3 5 8 7 9 10 7 10 10 9 11 9 7 6 5 5 5 5 4 4 4 4 4 4 3 3 3 3 3 3 4 4 3 3
1 1 1 1 2 3 3 3 3 4 7 5 7 6 5 4 5 5 5 4 4 5 6 8 6 9 10 11 10 8 7 6 5 5 5 4 4 4 4 5 4 4 4 3 3 3 3 3 4 4 3 3 3 3
1 1 1 2 2 3 3 3 2 7 6 4 4 4 4 4 4 3 3 3 3 3 5 6 7 9 9 8 7 7 6 6 6 5 4 4 5 4 4 4 3 3 4 4 4 4 3 3 3 3 3 3 3 4
1 1 1 2 2 2 4 4 2 5 7 5 4 5 5 4 4 4 3 4 4 5 6 7 8 7 7 6 5 5 5 4 5 6 6 6 5 4 4 4 4 3 3 3 3 4 3 3 3 2 3 3 4 4
2 2 2 2 2 3 4 4 5 4 5 5 4 5 5 4 5 5 5 4 5 6 7 5 6 5 3 3 3 3 4 4 6 6 6 6 4 4 4 4 4 4 4 4 4 4 4 4 3 3 3 3 3 4
1 1 1 3 3 3 4 2 4 4 4 5 5 4 6 7 7 6 5 6 6 6 5 5 5 4 5 4 4 4 4 5 5 5 6 5 5 5 5 4 4 5 5 4 4 4 4 3 2 3 3 3 3 3
1 1 2 3 6 7 8 2 5 5 7 7 5 7 7 7 6 5 7 6 6 5 5 5 6 5 5 5 5 4 5 5 5 5 4 4 4 4 4 4 4 4 5 5 4 4 4 6 5 4 4 4 4 5
4 3 5 6 7 9 5 6 5 6 6 7 8 8 8 7 6 8 10 9 7 6 6 6 6 6 6 5 6 6 5 4 5 4 4 3 4 4 3 4 4 4 4 4 4 4 4 4 6 5 4 4 4 5
8 9 8 12 6 7 8 8 8 8 10 8 9 9 8 7 10 11 13 9 7 7 6 5 5 6 7 6 6 5 4 4 5 5 4 3 3 3 3 3 3 2 2 3 3 3 3 3 3 3 2 2 4 3
11 8 9 7 7 8 8 10 9 9 9 9 9 8 8 9 12 13 10 8 7 6 6 6 6 6 6 5 5 5 4 3 3 3 3 2 3 3 4 4 4 3 1 1 2 2 2 2 2 3 3 3 4 2
11 9 6 4 5 6 7 8 8 9 9 10 10 10 10 12 13 10 7 6 6 5 4 4 5 5 5 5 3 2 1 1 2 2 1 1 1 1 2 3 3 2 1 1 2 3 3 3 3 3 2 2 1 2
8 7 9 7 8 8 9 9 9 10 9 8 8 10 11 12 11 8 7 5 4 3 3 3 3 2 2 2 2 2 2 1 1 2 3 3 2 2 2 2 3 7 4 4 2 2 2 1 2 2 2 2 2 1
10 8 8 10 9 9 9 9 8 7 6 7 9 10 9 7 6 5 5 4 3 4 4 4 3 2 2 1 1 2 1 2 4 5 5 6 5 4 3 2 1 1 2 3 8 5 3 3 2 1 1 1 1 1
8 7 8 8 9 9 7 5 6 5 5 5 5 6 6 5 4 3 3 3 4 4 3 2 2 2 3 3 3 2 2 2 2 3 4 3 3 2 1 1 1 1 1 1 1 2 6 3 3 1 1 1 1 1
6 7 8 7 8 7 6 5 5 5 5 5 5 6 6 5 4 3 3 2 2 2 2 2 3 3 3 3 3 4 4 2 1 1 1 1 1 1 0 0 0 0 0 0 1 1 1 2 1 2 2 2 2 2
6 6 7 8 7 6 5 6 6 6 6 6 6 5 5 5 6 3 1 1 2 3 3 4 3 4 2 2 2 2 4 2 2 1 1 1 1 0 0 0 0 0 0 0 0 1 1 1 2 2 2 1 1 2
6 6 6 7 7 7 6 6 7 7 7 7 7 6 6 6 7 4 1 1 2 3 2 2 2 1 1 2 2 3 4 3 7 9 9 9 9 6 2 1 1 0 -0 1 1 1 1 1 1 1 1 2 2 2